Time,TemperatureF,DewpointF,PressureIn,WindDirection,WindDirectionDegrees,WindSpeedMPH,WindSpeedGustMPH,Humidity,HourlyPrecipIn,Conditions,Clouds,dailyrainin,SoftwareType,DateUTC
2013-04-12 00:00:00,72.2,62.7,29.71,South,181,7.0,7.0,72,0.00,,FEW050,0.00,VWS V14.01,2013-04-12 04:00:00,
2013-04-12 00:05:00,72.2,62.7,29.71,South,172,2.0,7.0,72,0.00,,BKN120,0.00,VWS V14.01,2013-04-12 04:05:00,
2013-04-12 00:10:00,72.2,63.1,29.71,South,172,5.0,10.0,73,0.00,,BKN120,0.00,VWS V14.01,2013-04-12 04:10:00,
2013-04-12 00:15:00,72.3,63.2,29.71,SSW,210,5.0,13.0,73,0.00,,BKN120,0.00,VWS V14.01,2013-04-12 04:15:00,
2013-04-12 00:28:00,72.2,63.1,29.71,South,169,6.0,13.0,73,0.00,,BKN120,0.00,VWS V14.01,2013-04-12 04:28:00,
2013-04-12 00:30:00,72.2,63.5,29.71,SE,144,4.0,13.0,74,0.00,,OVC044,0.00,VWS V14.01,2013-04-12 04:30:00,
2013-04-12 00:33:00,72.2,63.5,29.71,South,173,7.0,13.0,74,0.00,,BKN120,0.00,VWS V14.01,2013-04-12 04:33:00,
2013-04-12 00:38:00,72.2,63.5,29.71,SSW,209,7.0,13.0,74,0.00,,BKN120,0.00,VWS V14.01,2013-04-12 04:38:00,
2013-04-12 00:43:00,72.3,63.9,29.70,ESE,115,7.0,13.0,75,0.00,,BKN120,0.00,VWS V14.01,2013-04-12 04:43:00,
2013-04-12 00:48:00,72.4,64.0,29.70,SE,135,9.0,19.0,75,0.00,,BKN120,0.00,VWS V14.01,2013-04-12 04:48:00,
2013-04-12 00:53:00,72.4,64.4,29.70,South,178,7.0,19.0,76,0.00,,BKN120,0.00,VWS V14.01,2013-04-12 04:53:00,
2013-04-12 00:58:00,72.4,64.4,29.70,SSE,158,9.0,19.0,76,0.00,,BKN120,0.00,VWS V14.01,2013-04-12 04:58:00,
2013-04-12 01:00:00,72.4,64.4,29.70,SSE,167,4.0,19.0,76,0.00,,OVC044,0.00,VWS V14.01,2013-04-12 05:00:00,
2013-04-12 01:03:00,72.4,64.4,29.70,SSE,148,6.0,14.0,76,0.00,,CLR,0.00,VWS V14.01,2013-04-12 05:03:00,
2013-04-12 01:08:00,72.3,64.7,29.69,SSE,167,6.0,15.0,77,0.00,,CLR,0.00,VWS V14.01,2013-04-12 05:08:00,
2013-04-12 01:13:00,72.2,64.6,29.69,SSE,161,4.0,15.0,77,0.00,,CLR,0.00,VWS V14.01,2013-04-12 05:13:00,
2013-04-12 01:18:00,72.1,64.9,29.68,SSE,164,10.0,15.0,78,0.00,,CLR,0.00,VWS V14.01,2013-04-12 05:18:00,
2013-04-12 01:23:00,72.1,64.9,29.68,SE,146,14.0,16.0,78,0.00,,CLR,0.00,VWS V14.01,2013-04-12 05:23:00,
2013-04-12 01:28:00,72.2,65.0,29.68,South,186,14.0,16.0,78,0.00,,CLR,0.00,VWS V14.01,2013-04-12 05:28:00,
2013-04-12 01:30:00,72.2,65.0,29.68,South,188,18.0,18.0,78,0.00,,OVC044,0.00,VWS V14.01,2013-04-12 05:30:00,
2013-04-12 01:33:00,72.2,65.0,29.68,SSW,197,9.0,18.0,78,0.00,,CLR,0.00,VWS V14.01,2013-04-12 05:33:00,
2013-04-12 01:38:00,72.1,64.9,29.68,South,175,9.0,18.0,78,0.00,,CLR,0.00,VWS V14.01,2013-04-12 05:38:00,
2013-04-12 01:43:00,72.1,64.9,29.68,SE,135,14.0,22.0,78,0.00,,CLR,0.00,VWS V14.01,2013-04-12 05:43:00,
2013-04-12 01:48:00,72.0,64.8,29.68,SSW,194,8.0,22.0,78,0.00,,CLR,0.00,VWS V14.01,2013-04-12 05:48:00,
2013-04-12 01:53:00,72.0,64.8,29.68,SSW,201,4.0,22.0,78,0.00,,CLR,0.00,VWS V14.01,2013-04-12 05:53:00,
2013-04-12 01:58:00,71.9,64.7,29.67,SE,129,8.0,22.0,78,0.00,,CLR,0.00,VWS V14.01,2013-04-12 05:58:00,
2013-04-12 02:00:00,71.9,64.7,29.67,South,186,9.0,22.0,78,0.00,,OVC044,0.00,VWS V14.01,2013-04-12 06:00:00,
2013-04-12 02:03:00,71.9,64.7,29.67,South,189,10.0,20.0,78,0.00,,OVC110,0.00,VWS V14.01,2013-04-12 06:03:00,
2013-04-12 02:08:00,71.8,64.6,29.67,SSW,204,9.0,20.0,78,0.00,,OVC110,0.00,VWS V14.01,2013-04-12 06:08:00,
2013-04-12 02:13:00,71.7,64.5,29.66,South,169,15.0,20.0,78,0.00,,OVC110,0.00,VWS V14.01,2013-04-12 06:13:00,
2013-04-12 02:18:00,71.6,64.4,29.66,SSE,147,12.0,20.0,78,0.00,,OVC110,0.00,VWS V14.01,2013-04-12 06:18:00,
2013-04-12 02:23:00,71.3,64.8,29.66,SSE,150,16.0,20.0,80,0.00,,OVC110,0.00,VWS V14.01,2013-04-12 06:23:00,
2013-04-12 02:28:00,70.9,64.8,29.66,SE,127,11.0,20.0,81,0.00,,OVC110,0.00,VWS V14.01,2013-04-12 06:28:00,
2013-04-12 02:30:00,70.8,64.7,29.66,South,174,9.0,20.0,81,0.00,,OVC044,0.00,VWS V14.01,2013-04-12 06:30:00,
2013-04-12 02:33:00,70.7,64.6,29.66,South,183,7.0,15.0,81,0.00,,OVC110,0.00,VWS V14.01,2013-04-12 06:33:00,
2013-04-12 02:38:00,70.8,64.3,29.66,South,180,17.0,21.0,80,0.00,,OVC110,0.00,VWS V14.01,2013-04-12 06:38:00,
2013-04-12 02:43:00,71.0,64.5,29.66,SE,140,10.0,21.0,80,0.00,,OVC110,0.00,VWS V14.01,2013-04-12 06:43:00,
2013-04-12 02:48:00,71.0,64.5,29.65,South,178,8.0,21.0,80,0.00,,OVC110,0.00,VWS V14.01,2013-04-12 06:48:00,
2013-04-12 02:53:00,71.0,64.2,29.65,South,169,7.0,21.0,79,0.00,,OVC110,0.00,VWS V14.01,2013-04-12 06:53:00,
2013-04-12 02:58:00,71.1,64.3,29.65,South,174,10.0,22.0,79,0.00,,OVC110,0.00,VWS V14.01,2013-04-12 06:58:00,
2013-04-12 03:00:00,71.1,64.3,29.65,South,180,9.0,22.0,79,0.00,,OVC044,0.00,VWS V14.01,2013-04-12 07:00:00,
2013-04-12 03:03:00,71.0,64.2,29.65,South,171,2.0,11.0,79,0.00,,BKN031,0.00,VWS V14.01,2013-04-12 07:03:00,
2013-04-12 03:08:00,70.9,64.1,29.64,WSW,240,4.0,16.0,79,0.00,,BKN031,0.00,VWS V14.01,2013-04-12 07:08:00,
2013-04-12 03:13:00,70.9,64.1,29.65,SSW,197,13.0,17.0,79,0.00,,BKN031,0.00,VWS V14.01,2013-04-12 07:13:00,
2013-04-12 03:18:00,70.8,64.3,29.64,SE,130,6.0,18.0,80,0.00,,BKN031,0.00,VWS V14.01,2013-04-12 07:18:00,
2013-04-12 03:23:00,70.8,64.3,29.64,South,182,16.0,19.0,80,0.00,,BKN031,0.00,VWS V14.01,2013-04-12 07:23:00,
2013-04-12 03:28:00,70.8,64.3,29.64,SSE,165,6.0,20.0,80,0.00,,BKN031,0.00,VWS V14.01,2013-04-12 07:28:00,
2013-04-12 03:30:00,70.8,64.3,29.64,South,190,9.0,20.0,80,0.00,,OVC044,0.00,VWS V14.01,2013-04-12 07:30:00,
2013-04-12 03:33:00,70.8,64.3,29.63,South,172,9.0,18.0,80,0.00,,BKN031,0.00,VWS V14.01,2013-04-12 07:33:00,
2013-04-12 03:38:00,70.8,64.3,29.63,South,179,8.0,18.0,80,0.00,,BKN031,0.00,VWS V14.01,2013-04-12 07:38:00,
2013-04-12 03:43:00,70.8,64.3,29.62,SE,130,8.0,18.0,80,0.00,,BKN031,0.00,VWS V14.01,2013-04-12 07:43:00,
2013-04-12 03:48:00,70.8,64.3,29.62,South,182,17.0,24.0,80,0.00,,BKN031,0.00,VWS V14.01,2013-04-12 07:48:00,
2013-04-12 03:53:00,70.6,64.8,29.62,SE,142,5.0,24.0,82,0.01,,BKN031,0.01,VWS V14.01,2013-04-12 07:53:00,
2013-04-12 03:58:00,70.0,64.6,29.62,South,188,7.0,24.0,83,0.01,,BKN031,0.01,VWS V14.01,2013-04-12 07:58:00,
2013-04-12 04:00:00,69.8,64.8,29.62,SSE,157,5.0,24.0,84,0.01,,OVC044,0.01,VWS V14.01,2013-04-12 08:00:00,
2013-04-12 04:03:00,69.7,64.3,29.62,SE,146,5.0,13.0,83,0.01,,OVC033,0.01,VWS V14.01,2013-04-12 08:03:00,
2013-04-12 04:08:00,69.4,64.7,29.62,SSW,203,10.0,18.0,85,0.02,,OVC033,0.02,VWS V14.01,2013-04-12 08:08:00,
2013-04-12 04:13:00,68.9,64.6,29.62,SSE,153,4.0,18.0,86,0.04,,OVC033,0.04,VWS V14.01,2013-04-12 08:13:00,
2013-04-12 04:18:00,68.4,64.7,29.62,SE,139,8.0,18.0,88,0.06,,OVC033,0.06,VWS V14.01,2013-04-12 08:18:00,
2013-04-12 04:23:00,68.0,65.0,29.62,SSW,205,8.0,18.0,90,0.08,,OVC033,0.08,VWS V14.01,2013-04-12 08:23:00,
2013-04-12 04:28:00,67.7,65.0,29.61,SE,126,5.0,18.0,91,0.12,,OVC033,0.12,VWS V14.01,2013-04-12 08:28:00,
2013-04-12 04:30:00,67.6,64.9,29.61,SE,124,8.0,18.0,91,0.14,,OVC044,0.14,VWS V14.01,2013-04-12 08:30:00,
2013-04-12 04:33:00,67.3,64.9,29.61,SE,134,7.0,14.0,92,0.14,,OVC033,0.14,VWS V14.01,2013-04-12 08:33:00,
2013-04-12 04:38:00,67.2,65.1,29.61,SE,136,15.0,18.0,93,0.16,,OVC033,0.16,VWS V14.01,2013-04-12 08:38:00,
2013-04-12 04:43:00,67.2,65.1,29.62,South,183,12.0,18.0,93,0.18,,OVC033,0.18,VWS V14.01,2013-04-12 08:43:00,
2013-04-12 04:48:00,67.2,65.1,29.62,South,173,13.0,20.0,93,0.20,,OVC033,0.20,VWS V14.01,2013-04-12 08:48:00,
2013-04-12 04:53:00,67.1,65.0,29.61,SSE,156,8.0,20.0,93,0.23,,OVC033,0.23,VWS V14.01,2013-04-12 08:53:00,
2013-04-12 05:00:00,67.1,65.3,29.61,SW,231,11.0,20.0,94,0.27,,OVC044,0.27,VWS V14.01,2013-04-12 09:00:00,
2013-04-12 05:05:00,66.1,63.4,29.68,West,271,9.0,31.0,91,0.61,,OVC033,0.62,VWS V14.01,2013-04-12 09:05:00,
2013-04-12 05:11:00,64.9,63.1,29.64,South,179,12.0,31.0,94,0.70,,OVC033,0.71,VWS V14.01,2013-04-12 09:11:00,
2013-04-12 05:16:00,65.2,63.1,29.64,SW,219,11.0,31.0,93,0.71,,OVC033,0.72,VWS V14.01,2013-04-12 09:16:00,
2013-04-12 05:21:00,65.3,63.2,29.64,SSW,192,13.0,31.0,93,0.73,,OVC033,0.74,VWS V14.01,2013-04-12 09:21:00,
2013-04-12 05:26:00,64.9,62.8,29.63,SSW,196,6.0,31.0,93,0.73,,OVC033,0.74,VWS V14.01,2013-04-12 09:26:00,
2013-04-12 05:30:00,64.5,62.4,29.63,SSW,211,7.0,31.0,93,0.74,,OVC044,0.75,VWS V14.01,2013-04-12 09:30:00,
2013-04-12 05:31:00,64.3,62.2,29.63,SSE,159,11.0,11.0,93,0.62,,OVC033,0.76,VWS V14.01,2013-04-12 09:31:00,
2013-04-12 05:36:00,63.9,62.1,29.63,SSW,209,8.0,12.0,94,0.63,,OVC033,0.77,VWS V14.01,2013-04-12 09:36:00,
2013-04-12 05:41:00,63.6,62.2,29.63,South,184,7.0,12.0,95,0.64,,OVC033,0.78,VWS V14.01,2013-04-12 09:41:00,
2013-04-12 05:46:00,63.3,61.8,29.63,South,182,6.0,12.0,95,0.64,,OVC033,0.78,VWS V14.01,2013-04-12 09:46:00,
2013-04-12 05:51:00,63.1,61.7,29.63,SSE,157,5.0,12.0,95,0.64,,OVC033,0.78,VWS V14.01,2013-04-12 09:51:00,
2013-04-12 05:56:00,63.0,61.5,29.63,South,173,6.0,12.0,95,0.65,,OVC033,0.79,VWS V14.01,2013-04-12 09:56:00,
2013-04-12 06:00:00,62.9,61.5,29.63,SSE,148,6.0,12.0,95,0.66,,OVC044,0.80,VWS V14.01,2013-04-12 10:00:00,
2013-04-12 06:01:00,62.8,61.3,29.63,SSE,156,5.0,8.0,95,0.53,, +RA,0.80,VWS V14.01,2013-04-12 10:01:00,
2013-04-12 06:06:00,62.6,61.5,29.63,South,182,6.0,8.0,96,0.53,, +RA,0.80,VWS V14.01,2013-04-12 10:06:00,
2013-04-12 06:11:00,62.5,61.3,29.63,SSE,158,5.0,8.0,96,0.53,, +RA,0.80,VWS V14.01,2013-04-12 10:11:00,
2013-04-12 06:16:00,62.3,61.2,29.63,SSE,168,3.0,10.0,96,0.54,, +RA,0.81,VWS V14.01,2013-04-12 10:16:00,
2013-04-12 06:21:00,62.3,61.2,29.62,South,178,5.0,10.0,96,0.54,, +RA,0.81,VWS V14.01,2013-04-12 10:21:00,
2013-04-12 06:26:00,62.2,61.0,29.63,South,180,4.0,10.0,96,0.54,, +RA,0.81,VWS V14.01,2013-04-12 10:26:00,
2013-04-12 06:30:00,62.2,61.0,29.63,SSW,212,4.0,10.0,96,0.54,,OVC044,0.81,VWS V14.01,2013-04-12 10:30:00,
2013-04-12 06:31:00,62.2,61.0,29.63,SSW,213,6.0,7.0,96,0.06,, +RA,0.81,VWS V14.01,2013-04-12 10:31:00,
2013-04-12 06:36:00,62.1,61.0,29.63,SSW,205,3.0,8.0,96,0.06,, +RA,0.81,VWS V14.01,2013-04-12 10:36:00,
2013-04-12 06:41:00,62.1,61.0,29.63,South,176,5.0,9.0,96,0.06,, +RA,0.81,VWS V14.01,2013-04-12 10:41:00,
2013-04-12 06:46:00,62.1,61.0,29.63,South,175,5.0,9.0,96,0.06,, +RA,0.81,VWS V14.01,2013-04-12 10:46:00,
2013-04-12 06:51:00,62.1,61.2,29.63,South,185,7.0,10.0,97,0.06,, +RA,0.81,VWS V14.01,2013-04-12 10:51:00,
2013-04-12 06:56:00,62.1,61.2,29.63,SW,227,5.0,10.0,97,0.06,, +RA,0.81,VWS V14.01,2013-04-12 10:56:00,
2013-04-12 07:00:00,62.1,61.2,29.63,SSW,207,6.0,10.0,97,0.06,,OVC044,0.81,VWS V14.01,2013-04-12 11:00:00,
2013-04-12 07:01:00,62.1,61.2,29.63,SSE,163,4.0,6.0,97,0.01,,-RA,0.81,VWS V14.01,2013-04-12 11:01:00,
2013-04-12 07:06:00,62.1,61.2,29.63,South,173,4.0,8.0,97,0.01,,-RA,0.81,VWS V14.01,2013-04-12 11:06:00,
2013-04-12 07:11:00,62.0,61.1,29.63,SSE,165,4.0,8.0,97,0.01,,-RA,0.81,VWS V14.01,2013-04-12 11:11:00,
2013-04-12 07:16:00,62.0,61.1,29.63,South,172,3.0,8.0,97,0.01,,-RA,0.81,VWS V14.01,2013-04-12 11:16:00,
2013-04-12 07:21:00,62.0,61.1,29.64,SSE,165,3.0,8.0,97,0.01,,-RA,0.81,VWS V14.01,2013-04-12 11:21:00,
2013-04-12 07:26:00,61.9,61.0,29.64,SE,145,4.0,8.0,97,0.01,,-RA,0.81,VWS V14.01,2013-04-12 11:26:00,
2013-04-12 07:30:00,61.9,61.0,29.64,SSE,157,3.0,8.0,97,0.01,,OVC044,0.81,VWS V14.01,2013-04-12 11:30:00,
2013-04-12 07:31:00,61.9,61.0,29.64,South,169,3.0,4.0,97,0.00,,-RA,0.81,VWS V14.01,2013-04-12 11:31:00,
2013-04-12 07:36:00,61.9,61.0,29.64,SSE,159,0.0,4.0,97,0.00,,-RA,0.81,VWS V14.01,2013-04-12 11:36:00,
2013-04-12 07:42:00,62.0,61.1,29.64,South,187,4.0,4.0,97,0.00,,-RA,0.81,VWS V14.01,2013-04-12 11:42:00,
2013-04-12 07:47:00,62.1,61.2,29.64,SSW,204,2.0,4.0,97,0.00,,-RA,0.81,VWS V14.01,2013-04-12 11:47:00,
2013-04-12 07:52:00,62.1,61.2,29.64,South,183,4.0,5.0,97,0.00,,-RA,0.81,VWS V14.01,2013-04-12 11:52:00,
2013-04-12 07:57:00,62.2,61.3,29.64,SSE,148,3.0,6.0,97,0.00,,-RA,0.81,VWS V14.01,2013-04-12 11:57:00,
2013-04-12 08:00:00,62.3,61.4,29.64,SSE,163,1.0,6.0,97,0.00,,OVC044,0.81,VWS V14.01,2013-04-12 12:00:00,
2013-04-12 08:02:00,62.3,61.4,29.64,SSE,163,0.0,2.0,97,0.00,,-RA,0.81,VWS V14.01,2013-04-12 12:02:00,
2013-04-12 08:07:00,62.4,61.5,29.64,SSE,149,2.0,4.0,97,0.00,,-RA,0.81,VWS V14.01,2013-04-12 12:07:00,
2013-04-12 08:12:00,62.5,61.6,29.64,SSE,164,2.0,4.0,97,0.00,,-RA,0.81,VWS V14.01,2013-04-12 12:12:00,
2013-04-12 08:17:00,62.6,61.7,29.64,South,173,2.0,4.0,97,0.00,,-RA,0.81,VWS V14.01,2013-04-12 12:17:00,
2013-04-12 08:22:00,62.7,61.8,29.64,SSE,148,2.0,4.0,97,0.00,,-RA,0.81,VWS V14.01,2013-04-12 12:22:00,
2013-04-12 08:27:00,62.9,62.0,29.64,SW,230,2.0,5.0,97,0.00,,-RA,0.81,VWS V14.01,2013-04-12 12:27:00,
2013-04-12 08:30:00,62.9,62.0,29.64,South,182,2.0,5.0,97,0.00,,OVC044,0.81,VWS V14.01,2013-04-12 12:30:00,
2013-04-12 08:32:00,62.9,62.0,29.64,SSW,200,4.0,5.0,97,0.00,,-RA,0.81,VWS V14.01,2013-04-12 12:32:00,
2013-04-12 08:37:00,63.0,62.1,29.64,SE,134,2.0,5.0,97,0.00,,-RA,0.81,VWS V14.01,2013-04-12 12:37:00,
2013-04-12 08:42:00,63.2,62.3,29.64,South,184,4.0,6.0,97,0.00,,-RA,0.81,VWS V14.01,2013-04-12 12:42:00,
2013-04-12 08:47:00,63.2,62.3,29.64,SSE,161,1.0,6.0,97,0.00,,-RA,0.81,VWS V14.01,2013-04-12 12:47:00,
2013-04-12 08:52:00,63.4,62.8,29.64,SSE,151,0.0,6.0,98,0.00,,-RA,0.81,VWS V14.01,2013-04-12 12:52:00,
2013-04-12 08:57:00,63.6,63.0,29.64,SSE,152,4.0,6.0,98,0.00,,-RA,0.81,VWS V14.01,2013-04-12 12:57:00,
2013-04-12 09:00:00,63.7,62.8,29.64,SSW,211,5.0,10.0,97,0.00,,OVC044,0.81,VWS V14.01,2013-04-12 13:00:00,
2013-04-12 09:02:00,63.8,63.2,29.64,SSE,153,2.0,6.0,98,0.00,,BKN019,0.81,VWS V14.01,2013-04-12 13:02:00,
2013-04-12 09:07:00,64.2,63.6,29.63,SSE,161,4.0,6.0,98,0.00,,BKN019,0.81,VWS V14.01,2013-04-12 13:07:00,
2013-04-12 09:12:00,64.8,64.2,29.63,SSE,165,5.0,8.0,98,0.00,,BKN019,0.81,VWS V14.01,2013-04-12 13:12:00,
2013-04-12 09:17:00,64.8,64.2,29.62,SSE,155,7.0,10.0,98,0.00,,BKN019,0.81,VWS V14.01,2013-04-12 13:17:00,
2013-04-12 09:22:00,65.0,64.1,29.63,South,170,4.0,10.0,97,0.00,,BKN019,0.81,VWS V14.01,2013-04-12 13:22:00,
2013-04-12 09:27:00,65.4,64.5,29.63,SE,146,7.0,10.0,97,0.00,,BKN019,0.81,VWS V14.01,2013-04-12 13:27:00,
2013-04-12 09:30:00,65.6,64.7,29.63,South,174,6.0,11.0,97,0.00,,OVC044,0.81,VWS V14.01,2013-04-12 13:30:00,
2013-04-12 09:32:00,65.9,65.0,29.63,South,182,3.0,8.0,97,0.00,,BKN019,0.81,VWS V14.01,2013-04-12 13:32:00,
2013-04-12 09:37:00,66.3,65.1,29.63,SE,145,4.0,11.0,96,0.00,,BKN019,0.81,VWS V14.01,2013-04-12 13:37:00,
2013-04-12 09:42:00,66.5,65.3,29.62,SSW,192,5.0,11.0,96,0.00,,BKN019,0.81,VWS V14.01,2013-04-12 13:42:00,
2013-04-12 09:47:00,66.4,65.2,29.62,South,175,3.0,11.0,96,0.00,,BKN019,0.81,VWS V14.01,2013-04-12 13:47:00,
2013-04-12 09:52:00,66.6,65.4,29.62,SSW,206,5.0,11.0,96,0.00,,BKN019,0.81,VWS V14.01,2013-04-12 13:52:00,
2013-04-12 09:57:00,66.9,65.7,29.62,SSE,147,5.0,11.0,96,0.00,,BKN019,0.81,VWS V14.01,2013-04-12 13:57:00,
2013-04-12 10:00:00,67.1,65.9,29.62,SSE,153,4.0,11.0,96,0.00,,OVC044,0.81,VWS V14.01,2013-04-12 14:00:00,
2013-04-12 10:02:00,67.3,66.1,29.62,South,173,11.0,12.0,96,0.00,,SCT020,0.81,VWS V14.01,2013-04-12 14:02:00,
2013-04-12 10:07:00,67.8,66.3,29.62,South,181,2.0,13.0,95,0.00,,SCT020,0.81,VWS V14.01,2013-04-12 14:07:00,
2013-04-12 10:12:00,68.5,66.4,29.63,SSW,202,10.0,14.0,93,0.00,,SCT020,0.81,VWS V14.01,2013-04-12 14:12:00,
2013-04-12 10:17:00,69.0,66.6,29.62,SSW,196,14.0,17.0,92,0.00,,SCT020,0.81,VWS V14.01,2013-04-12 14:17:00,
2013-04-12 10:22:00,69.5,66.8,29.63,South,170,4.0,18.0,91,0.00,,SCT020,0.81,VWS V14.01,2013-04-12 14:22:00,
2013-04-12 10:27:00,69.7,66.6,29.62,SSW,206,7.0,18.0,90,0.00,,SCT020,0.81,VWS V14.01,2013-04-12 14:27:00,
2013-04-12 10:30:00,69.8,67.1,29.62,SW,219,9.0,18.0,91,0.00,,OVC044,0.81,VWS V14.01,2013-04-12 14:30:00,
2013-04-12 10:32:00,69.9,66.8,29.62,SSW,209,16.0,16.0,90,0.00,,SCT020,0.81,VWS V14.01,2013-04-12 14:32:00,
2013-04-12 10:37:00,70.5,67.1,29.62,SSW,205,9.0,18.0,89,0.00,,SCT020,0.81,VWS V14.01,2013-04-12 14:37:00,
2013-04-12 10:42:00,71.2,67.5,29.63,SSW,208,9.0,22.0,88,0.00,,SCT020,0.81,VWS V14.01,2013-04-12 14:42:00,
2013-04-12 10:47:00,71.4,67.0,29.63,South,190,12.0,22.0,86,0.00,,SCT020,0.81,VWS V14.01,2013-04-12 14:47:00,
2013-04-12 10:52:00,71.8,66.4,29.63,SW,232,12.0,22.0,83,0.00,,SCT020,0.81,VWS V14.01,2013-04-12 14:52:00,
2013-04-12 10:57:00,72.4,67.3,29.63,South,189,15.0,22.0,84,0.00,,SCT020,0.81,VWS V14.01,2013-04-12 14:57:00,
2013-04-12 11:00:00,72.6,66.8,29.63,SW,224,13.0,22.0,82,0.00,,OVC044,0.81,VWS V14.01,2013-04-12 15:00:00,
2013-04-12 11:02:00,72.5,66.3,29.63,WSW,242,17.0,20.0,81,0.00,,OVC055,0.81,VWS V14.01,2013-04-12 15:02:00,
2013-04-12 11:07:00,72.3,66.2,29.63,SSW,209,7.0,22.0,81,0.00,,OVC055,0.81,VWS V14.01,2013-04-12 15:07:00,
2013-04-12 11:12:00,72.4,66.6,29.63,SSW,194,12.0,22.0,82,0.00,,OVC055,0.81,VWS V14.01,2013-04-12 15:12:00,
2013-04-12 11:17:00,72.5,66.0,29.63,SW,227,10.0,22.0,80,0.00,,OVC055,0.81,VWS V14.01,2013-04-12 15:17:00,
2013-04-12 11:22:00,72.5,65.6,29.63,SW,224,15.0,22.0,79,0.00,,OVC055,0.81,VWS V14.01,2013-04-12 15:22:00,
2013-04-12 11:27:00,73.0,66.1,29.63,SW,216,8.0,22.0,79,0.00,,OVC055,0.81,VWS V14.01,2013-04-12 15:27:00,
2013-04-12 11:30:00,73.4,66.5,29.63,West,277,8.0,22.0,79,0.00,,OVC044,0.81,VWS V14.01,2013-04-12 15:30:00,
2013-04-12 11:32:00,73.8,66.5,29.63,SW,228,11.0,14.0,78,0.00,,OVC055,0.81,VWS V14.01,2013-04-12 15:32:00,
2013-04-12 11:37:00,74.3,66.2,29.63,SW,225,14.0,16.0,76,0.00,,OVC055,0.81,VWS V14.01,2013-04-12 15:37:00,
2013-04-12 11:42:00,74.1,65.3,29.64,SW,215,14.0,21.0,74,0.00,,OVC055,0.81,VWS V14.01,2013-04-12 15:42:00,
2013-04-12 11:47:00,74.5,65.3,29.64,SW,220,19.0,22.0,73,0.00,,OVC055,0.81,VWS V14.01,2013-04-12 15:47:00,
2013-04-12 11:52:00,74.3,64.7,29.64,SW,227,14.0,22.0,72,0.00,,OVC055,0.81,VWS V14.01,2013-04-12 15:52:00,
2013-04-12 11:57:00,74.6,64.2,29.63,SW,229,8.0,22.0,70,0.00,,OVC055,0.81,VWS V14.01,2013-04-12 15:57:00,
2013-04-12 12:00:00,74.8,64.8,29.64,SW,222,10.0,22.0,71,0.00,,OVC044,0.81,VWS V14.01,2013-04-12 16:00:00,
2013-04-12 12:02:00,75.0,64.2,29.63,SW,226,13.0,14.0,69,0.00,,BKN045,0.81,VWS V14.01,2013-04-12 16:02:00,
2013-04-12 12:07:00,75.3,64.0,29.63,WSW,248,12.0,15.0,68,0.00,,BKN045,0.81,VWS V14.01,2013-04-12 16:07:00,
2013-04-12 12:12:00,75.4,64.9,29.63,SW,217,9.0,17.0,70,0.00,,BKN045,0.81,VWS V14.01,2013-04-12 16:12:00,
2013-04-12 12:17:00,75.5,64.2,29.62,West,261,6.0,17.0,68,0.00,,BKN045,0.81,VWS V14.01,2013-04-12 16:17:00,
2013-04-12 12:22:00,75.9,64.6,29.62,SW,230,9.0,17.0,68,0.00,,BKN045,0.81,VWS V14.01,2013-04-12 16:22:00,
2013-04-12 12:27:00,76.6,64.8,29.62,SSW,198,7.0,17.0,67,0.00,,BKN045,0.81,VWS V14.01,2013-04-12 16:27:00,
2013-04-12 12:30:00,76.7,64.1,29.62,SSW,194,5.0,17.0,65,0.00,,OVC044,0.81,VWS V14.01,2013-04-12 16:30:00,
2013-04-12 12:32:00,76.9,62.9,29.62,West,267,10.0,13.0,62,0.00,,BKN045,0.81,VWS V14.01,2013-04-12 16:32:00,
2013-04-12 12:37:00,76.9,63.8,29.62,SW,215,11.0,14.0,64,0.00,,BKN045,0.81,VWS V14.01,2013-04-12 16:37:00,
2013-04-12 12:42:00,76.9,64.2,29.61,SW,232,6.0,14.0,65,0.00,,BKN045,0.81,VWS V14.01,2013-04-12 16:42:00,
2013-04-12 12:47:00,76.9,65.1,29.61,SW,216,9.0,14.0,67,0.00,,BKN045,0.81,VWS V14.01,2013-04-12 16:47:00,
2013-04-12 12:52:00,77.6,64.9,29.61,West,265,8.0,14.0,65,0.00,,BKN045,0.81,VWS V14.01,2013-04-12 16:52:00,
2013-04-12 12:57:00,77.3,64.6,29.61,NW,311,1.0,14.0,65,0.00,,BKN045,0.81,VWS V14.01,2013-04-12 16:57:00,
2013-04-12 13:00:00,77.3,64.6,29.61,North,360,3.0,14.0,65,0.00,,OVC044,0.81,VWS V14.01,2013-04-12 17:00:00,
2013-04-12 13:02:00,77.1,64.4,29.61,NW,304,3.0,4.0,65,0.00,,BKN065,0.81,VWS V14.01,2013-04-12 17:02:00,
2013-04-12 13:07:00,76.9,66.0,29.61,NW,306,4.0,5.0,69,0.00,,BKN065,0.81,VWS V14.01,2013-04-12 17:07:00,
2013-04-12 13:12:00,77.5,63.9,29.60,WNW,299,3.0,8.0,63,0.00,,BKN065,0.81,VWS V14.01,2013-04-12 17:12:00,
2013-04-12 13:17:00,77.6,63.1,29.60,WSW,256,5.0,8.0,61,0.00,,BKN065,0.81,VWS V14.01,2013-04-12 17:17:00,
2013-04-12 13:22:00,77.9,62.4,29.60,WSW,238,8.0,10.0,59,0.00,,BKN065,0.81,VWS V14.01,2013-04-12 17:22:00,
2013-04-12 13:27:00,78.0,62.5,29.60,West,263,5.0,14.0,59,0.00,,BKN065,0.81,VWS V14.01,2013-04-12 17:27:00,
2013-04-12 13:30:00,78.1,62.1,29.60,SW,235,6.0,14.0,58,0.00,,OVC044,0.81,VWS V14.01,2013-04-12 17:30:00,
2013-04-12 13:32:00,78.0,61.0,29.59,WSW,244,6.0,11.0,56,0.00,,BKN065,0.81,VWS V14.01,2013-04-12 17:32:00,
2013-04-12 13:38:00,77.8,61.9,29.59,SSW,207,6.0,13.0,58,0.00,,BKN065,0.81,VWS V14.01,2013-04-12 17:38:00,
2013-04-12 13:43:00,78.2,63.2,29.59,West,270,3.0,13.0,60,0.00,,BKN065,0.81,VWS V14.01,2013-04-12 17:43:00,
2013-04-12 13:48:00,78.4,62.9,29.59,SW,219,6.0,13.0,59,0.00,,BKN065,0.81,VWS V14.01,2013-04-12 17:48:00,
2013-04-12 13:53:00,78.7,60.7,29.59,West,265,8.0,15.0,54,0.00,,BKN065,0.81,VWS V14.01,2013-04-12 17:53:00,
2013-04-12 13:58:00,78.7,61.7,29.58,SSW,208,7.0,15.0,56,0.00,,BKN065,0.81,VWS V14.01,2013-04-12 17:58:00,
2013-04-12 14:00:00,78.6,61.1,29.58,WSW,247,3.0,15.0,55,0.00,,OVC044,0.81,VWS V14.01,2013-04-12 18:00:00,
2013-04-12 14:03:00,78.5,61.0,29.58,West,273,7.0,9.0,55,0.00,,SCT070,0.81,VWS V14.01,2013-04-12 18:03:00,
2013-04-12 14:08:00,78.8,61.8,29.58,SW,232,6.0,13.0,56,0.00,,SCT070,0.81,VWS V14.01,2013-04-12 18:08:00,
2013-04-12 14:13:00,79.6,63.0,29.58,WNW,298,4.0,13.0,57,0.00,,SCT070,0.81,VWS V14.01,2013-04-12 18:13:00,
2013-04-12 14:18:00,79.7,62.6,29.58,WNW,290,2.0,13.0,56,0.00,,SCT070,0.81,VWS V14.01,2013-04-12 18:18:00,
2013-04-12 14:23:00,78.6,62.1,29.58,NW,310,2.0,13.0,57,0.00,,SCT070,0.81,VWS V14.01,2013-04-12 18:23:00,
2013-04-12 14:28:00,77.8,61.9,29.58,WNW,290,4.0,13.0,58,0.00,,SCT070,0.81,VWS V14.01,2013-04-12 18:28:00,
2013-04-12 14:30:00,77.6,62.2,29.58,WNW,290,4.0,13.0,59,0.00,,OVC044,0.81,VWS V14.01,2013-04-12 18:30:00,
2013-04-12 15:00:00,77.3,61.4,29.58,SW,229,8.0,13.0,58,0.00,,OVC044,0.81,VWS V14.01,2013-04-12 19:00:00,
2013-04-12 15:26:00,78.1,60.6,29.56,West,275,3.0,11.0,55,0.00,,SCT080,0.81,VWS V14.01,2013-04-12 19:26:00,
2013-04-12 15:27:00,78.1,60.1,29.56,West,276,2.0,11.0,54,0.00,,SCT080,0.81,VWS V14.01,2013-04-12 19:27:00,
2013-04-12 15:30:00,78.1,60.6,29.56,SSE,152,1.0,11.0,55,0.00,,OVC044,0.81,VWS V14.01,2013-04-12 19:30:00,
2013-04-12 15:32:00,78.1,61.1,29.56,SW,233,1.0,3.0,56,0.00,,SCT080,0.81,VWS V14.01,2013-04-12 19:32:00,
2013-04-12 15:37:00,78.7,62.2,29.56,SW,234,4.0,6.0,57,0.00,,SCT080,0.81,VWS V14.01,2013-04-12 19:37:00,
2013-04-12 15:42:00,79.5,61.4,29.56,SSW,207,9.0,9.0,54,0.00,,SCT080,0.81,VWS V14.01,2013-04-12 19:42:00,
2013-04-12 15:47:00,79.6,58.2,29.56,WNW,299,9.0,12.0,48,0.00,,SCT080,0.81,VWS V14.01,2013-04-12 19:47:00,
2013-04-12 15:52:00,79.8,58.4,29.56,WSW,240,10.0,12.0,48,0.00,,SCT080,0.81,VWS V14.01,2013-04-12 19:52:00,
2013-04-12 15:57:00,80.6,59.7,29.56,SSW,203,4.0,13.0,49,0.00,,SCT080,0.81,VWS V14.01,2013-04-12 19:57:00,
2013-04-12 16:00:00,81.0,59.5,29.55,SW,214,7.0,13.0,48,0.00,,OVC044,0.81,VWS V14.01,2013-04-12 20:00:00,
2013-04-12 16:02:00,81.2,59.1,29.55,WSW,242,7.0,9.0,47,0.00,,BKN080,0.81,VWS V14.01,2013-04-12 20:02:00,
2013-04-12 16:07:00,81.8,57.8,29.55,SSW,192,11.0,15.0,44,0.00,,BKN080,0.81,VWS V14.01,2013-04-12 20:07:00,
2013-04-12 16:12:00,81.8,59.0,29.55,SSW,194,9.0,16.0,46,0.00,,BKN080,0.81,VWS V14.01,2013-04-12 20:12:00,
2013-04-12 16:17:00,82.2,57.5,29.55,WSW,238,13.0,17.0,43,0.00,,BKN080,0.81,VWS V14.01,2013-04-12 20:17:00,
2013-04-12 16:22:00,81.8,57.1,29.55,West,273,7.0,21.0,43,0.00,,BKN080,0.81,VWS V14.01,2013-04-12 20:22:00,
2013-04-12 16:27:00,81.9,60.3,29.55,WSW,247,8.0,21.0,48,0.00,,BKN080,0.81,VWS V14.01,2013-04-12 20:27:00,
2013-04-12 16:30:00,82.1,59.3,29.55,SSW,207,8.0,21.0,46,0.00,,OVC044,0.81,VWS V14.01,2013-04-12 20:30:00,
2013-04-12 16:32:00,82.2,60.0,29.55,West,263,4.0,10.0,47,0.00,,BKN080,0.81,VWS V14.01,2013-04-12 20:32:00,
2013-04-12 16:37:00,81.6,57.6,29.55,SW,232,11.0,14.0,44,0.00,,BKN080,0.81,VWS V14.01,2013-04-12 20:37:00,
2013-04-12 16:42:00,81.7,58.3,29.55,WSW,244,5.0,14.0,45,0.00,,BKN080,0.81,VWS V14.01,2013-04-12 20:42:00,
2013-04-12 16:47:00,82.0,57.3,29.54,WSW,250,5.0,14.0,43,0.00,,BKN080,0.81,VWS V14.01,2013-04-12 20:47:00,
2013-04-12 16:52:00,82.0,57.3,29.55,SSW,199,11.0,15.0,43,0.00,,BKN080,0.81,VWS V14.01,2013-04-12 20:52:00,
2013-04-12 16:57:00,82.0,58.0,29.55,West,271,9.0,15.0,44,0.00,,BKN080,0.81,VWS V14.01,2013-04-12 20:57:00,
2013-04-12 17:00:00,81.9,56.6,29.55,WSW,241,6.0,15.0,42,0.00,,OVC044,0.81,VWS V14.01,2013-04-12 21:00:00,
2013-04-12 17:02:00,81.7,58.9,29.55,SW,229,7.0,10.0,46,0.00,,BKN090,0.81,VWS V14.01,2013-04-12 21:02:00,
2013-04-12 17:07:00,81.5,57.5,29.55,SSW,212,11.0,15.0,44,0.00,,BKN090,0.81,VWS V14.01,2013-04-12 21:07:00,
2013-04-12 17:12:00,80.5,56.0,29.55,WSW,252,11.0,15.0,43,0.00,,BKN090,0.81,VWS V14.01,2013-04-12 21:12:00,
2013-04-12 17:17:00,80.3,55.8,29.55,WSW,249,7.0,15.0,43,0.00,,BKN090,0.81,VWS V14.01,2013-04-12 21:17:00,
2013-04-12 17:22:00,80.6,54.8,29.55,WNW,301,5.0,15.0,41,0.00,,BKN090,0.81,VWS V14.01,2013-04-12 21:22:00,
2013-04-12 17:27:00,80.3,55.1,29.56,West,271,5.0,15.0,42,0.00,,BKN090,0.81,VWS V14.01,2013-04-12 21:27:00,
2013-04-12 17:30:00,80.2,55.0,29.56,NW,312,1.0,15.0,42,0.00,,OVC044,0.81,VWS V14.01,2013-04-12 21:30:00,
2013-04-12 17:32:00,79.8,54.7,29.56,NW,315,4.0,10.0,42,0.00,,BKN090,0.81,VWS V14.01,2013-04-12 21:32:00,
2013-04-12 17:37:00,78.3,54.6,29.56,WNW,288,6.0,10.0,44,0.00,,BKN090,0.81,VWS V14.01,2013-04-12 21:37:00,
2013-04-12 17:42:00,77.3,53.7,29.57,NW,322,5.0,10.0,44,0.00,,BKN090,0.81,VWS V14.01,2013-04-12 21:42:00,
2013-04-12 17:47:00,76.7,53.8,29.57,NW,305,4.0,10.0,45,0.00,,BKN090,0.81,VWS V14.01,2013-04-12 21:47:00,
2013-04-12 17:52:00,76.1,53.8,29.57,NW,309,1.0,10.0,46,0.00,,BKN090,0.81,VWS V14.01,2013-04-12 21:52:00,
2013-04-12 17:57:00,76.3,52.8,29.57,NW,315,5.0,12.0,44,0.00,,BKN090,0.81,VWS V14.01,2013-04-12 21:57:00,
2013-04-12 18:00:00,76.4,52.3,29.57,NW,320,4.0,12.0,43,0.00,,OVC044,0.81,VWS V14.01,2013-04-12 22:00:00,
2013-04-12 18:02:00,76.6,53.1,29.58,WNW,297,6.0,13.0,44,0.00,,BKN090,0.81,VWS V14.01,2013-04-12 22:02:00,
2013-04-12 18:07:00,76.7,53.2,29.58,West,281,6.0,13.0,44,0.00,,BKN090,0.81,VWS V14.01,2013-04-12 22:07:00,
2013-04-12 18:12:00,76.3,52.2,29.58,NW,313,6.0,13.0,43,0.00,,BKN090,0.81,VWS V14.01,2013-04-12 22:12:00,
2013-04-12 18:17:00,76.2,50.1,29.58,WNW,289,5.0,13.0,40,0.00,,BKN090,0.81,VWS V14.01,2013-04-12 22:17:00,
2013-04-12 18:22:00,76.2,50.1,29.58,NW,311,6.0,13.0,40,0.00,,BKN090,0.81,VWS V14.01,2013-04-12 22:22:00,
2013-04-12 18:27:00,76.2,49.5,29.58,NW,315,3.0,13.0,39,0.00,,BKN090,0.81,VWS V14.01,2013-04-12 22:27:00,
2013-04-12 18:30:00,76.1,50.0,29.59,NW,315,2.0,13.0,40,0.00,,OVC044,0.81,VWS V14.01,2013-04-12 22:30:00,
2013-04-12 18:32:00,75.8,47.7,29.59,NW,317,6.0,8.0,37,0.00,,BKN090,0.81,VWS V14.01,2013-04-12 22:32:00,
2013-04-12 18:37:00,74.9,46.2,29.59,NNW,333,10.0,12.0,36,0.00,,BKN090,0.81,VWS V14.01,2013-04-12 22:37:00,
2013-04-12 18:42:00,74.2,44.1,29.60,WNW,284,8.0,15.0,34,0.00,,BKN090,0.81,VWS V14.01,2013-04-12 22:42:00,
2013-04-12 18:47:00,74.0,44.6,29.60,NW,312,7.0,15.0,35,0.00,,BKN090,0.81,VWS V14.01,2013-04-12 22:47:00,
2013-04-12 18:52:00,73.8,44.5,29.60,WNW,293,3.0,16.0,35,0.00,,BKN090,0.81,VWS V14.01,2013-04-12 22:52:00,
2013-04-12 18:57:00,73.5,44.2,29.60,WNW,294,3.0,16.0,35,0.00,,BKN090,0.81,VWS V14.01,2013-04-12 22:57:00,
2013-04-12 19:00:00,73.4,44.1,29.60,WNW,298,5.0,16.0,35,0.00,,OVC044,0.81,VWS V14.01,2013-04-12 23:00:00,
2013-04-12 19:02:00,73.1,43.8,29.60,WNW,298,5.0,9.0,35,0.00,,BKN070,0.81,VWS V14.01,2013-04-12 23:02:00,
2013-04-12 19:07:00,72.9,42.9,29.60,WNW,291,4.0,9.0,34,0.00,,BKN070,0.81,VWS V14.01,2013-04-12 23:07:00,
2013-04-12 19:12:00,72.5,42.6,29.60,WNW,292,5.0,13.0,34,0.00,,BKN070,0.81,VWS V14.01,2013-04-12 23:12:00,
2013-04-12 19:17:00,72.0,41.3,29.61,NW,326,6.0,13.0,33,0.00,,BKN070,0.81,VWS V14.01,2013-04-12 23:17:00,
2013-04-12 19:22:00,71.6,41.8,29.61,WNW,296,4.0,13.0,34,0.00,,BKN070,0.81,VWS V14.01,2013-04-12 23:22:00,
2013-04-12 19:27:00,71.3,41.5,29.61,WSW,247,4.0,13.0,34,0.00,,BKN070,0.81,VWS V14.01,2013-04-12 23:27:00,
2013-04-12 19:30:00,71.2,41.4,29.62,West,274,3.0,13.0,34,0.00,,OVC044,0.81,VWS V14.01,2013-04-12 23:30:00,
2013-04-12 19:32:00,71.0,41.2,29.62,WNW,298,4.0,8.0,34,0.00,,BKN070,0.81,VWS V14.01,2013-04-12 23:32:00,
2013-04-12 19:37:00,70.7,41.7,29.62,West,265,4.0,8.0,35,0.00,,BKN070,0.81,VWS V14.01,2013-04-12 23:37:00,
2013-04-12 19:42:00,70.3,41.4,29.62,West,275,2.0,8.0,35,0.00,,BKN070,0.81,VWS V14.01,2013-04-12 23:42:00,
2013-04-12 19:47:00,69.9,41.0,29.62,West,277,2.0,8.0,35,0.00,,BKN070,0.81,VWS V14.01,2013-04-12 23:47:00,
2013-04-12 19:52:00,69.5,41.4,29.62,WNW,286,8.0,8.0,36,0.00,,BKN070,0.81,VWS V14.01,2013-04-12 23:52:00,
2013-04-12 19:57:00,69.4,41.3,29.62,WSW,238,9.0,9.0,36,0.00,,BKN070,0.81,VWS V14.01,2013-04-12 23:57:00,
2013-04-12 20:00:00,69.3,41.2,29.62,SW,227,4.0,9.0,36,0.00,,OVC044,0.81,VWS V14.01,2013-04-13 00:00:00,
2013-04-12 20:02:00,69.2,41.8,29.63,West,279,3.0,8.0,37,0.00,,BKN090,0.81,VWS V14.01,2013-04-13 00:02:00,
2013-04-12 20:07:00,69.2,41.1,29.63,WNW,282,9.0,13.0,36,0.00,,BKN090,0.81,VWS V14.01,2013-04-13 00:07:00,
2013-04-12 20:12:00,69.1,42.5,29.63,WNW,290,4.0,13.0,38,0.00,,BKN090,0.81,VWS V14.01,2013-04-13 00:12:00,
2013-04-12 20:17:00,68.8,42.9,29.63,NW,319,7.0,13.0,39,0.00,,BKN090,0.81,VWS V14.01,2013-04-13 00:17:00,
2013-04-12 20:22:00,68.6,42.7,29.64,West,271,6.0,15.0,39,0.00,,BKN090,0.81,VWS V14.01,2013-04-13 00:22:00,
2013-04-12 20:27:00,68.7,43.4,29.64,NW,313,4.0,16.0,40,0.00,,BKN090,0.81,VWS V14.01,2013-04-13 00:27:00,
2013-04-12 20:30:00,68.8,44.2,29.64,WNW,297,3.0,16.0,41,0.00,,OVC044,0.81,VWS V14.01,2013-04-13 00:30:00,
2013-04-12 20:32:00,68.6,44.0,29.64,WNW,290,2.0,8.0,41,0.00,,BKN090,0.81,VWS V14.01,2013-04-13 00:32:00,
2013-04-12 20:38:00,68.2,44.3,29.64,WNW,284,3.0,9.0,42,0.00,,BKN090,0.81,VWS V14.01,2013-04-13 00:38:00,
2013-04-12 20:43:00,68.1,46.0,29.65,WNW,290,8.0,9.0,45,0.00,,BKN090,0.81,VWS V14.01,2013-04-13 00:43:00,
2013-04-12 20:48:00,68.0,45.3,29.65,WSW,246,8.0,13.0,44,0.00,,BKN090,0.81,VWS V14.01,2013-04-13 00:48:00,
2013-04-12 20:53:00,67.7,45.0,29.65,West,269,6.0,13.0,44,0.00,,BKN090,0.81,VWS V14.01,2013-04-13 00:53:00,
2013-04-12 20:58:00,67.7,45.0,29.65,WNW,286,6.0,15.0,44,0.00,,BKN090,0.81,VWS V14.01,2013-04-13 00:58:00,
2013-04-12 21:00:00,67.7,45.6,29.65,NW,304,4.0,15.0,45,0.00,,OVC044,0.81,VWS V14.01,2013-04-13 01:00:00,
2013-04-12 21:03:00,67.5,45.4,29.65,WNW,295,4.0,9.0,45,0.00,,CLR,0.81,VWS V14.01,2013-04-13 01:03:00,
2013-04-12 21:08:00,67.3,45.2,29.65,West,271,5.0,12.0,45,0.00,,CLR,0.81,VWS V14.01,2013-04-13 01:08:00,
2013-04-12 21:13:00,67.1,45.1,29.66,WNW,295,2.0,14.0,45,0.00,,CLR,0.81,VWS V14.01,2013-04-13 01:13:00,
2013-04-12 21:18:00,67.2,44.6,29.66,WNW,284,4.0,14.0,44,0.00,,CLR,0.81,VWS V14.01,2013-04-13 01:18:00,
2013-04-12 21:23:00,66.9,43.7,29.66,SW,235,10.0,14.0,43,0.00,,CLR,0.81,VWS V14.01,2013-04-13 01:23:00,
2013-04-12 21:28:00,66.8,43.6,29.67,WNW,284,4.0,14.0,43,0.00,,CLR,0.81,VWS V14.01,2013-04-13 01:28:00,
2013-04-12 21:30:00,66.8,43.6,29.67,WNW,301,3.0,14.0,43,0.00,,OVC044,0.81,VWS V14.01,2013-04-13 01:30:00,
2013-04-12 21:33:00,66.6,44.0,29.67,NW,315,2.0,8.0,44,0.00,,CLR,0.81,VWS V14.01,2013-04-13 01:33:00,
2013-04-12 21:38:00,66.4,43.8,29.67,West,281,9.0,12.0,44,0.00,,CLR,0.81,VWS V14.01,2013-04-13 01:38:00,
2013-04-12 21:43:00,66.2,44.2,29.67,WNW,295,3.0,12.0,45,0.00,,CLR,0.81,VWS V14.01,2013-04-13 01:43:00,
2013-04-12 21:48:00,65.8,43.9,29.68,WNW,294,3.0,12.0,45,0.00,,CLR,0.81,VWS V14.01,2013-04-13 01:48:00,
2013-04-12 21:53:00,65.6,43.7,29.68,WNW,286,6.0,12.0,45,0.00,,CLR,0.81,VWS V14.01,2013-04-13 01:53:00,
2013-04-12 21:58:00,65.5,43.6,29.68,WNW,285,5.0,12.0,45,0.00,,CLR,0.81,VWS V14.01,2013-04-13 01:58:00,
2013-04-12 22:00:00,65.5,43.6,29.68,West,278,5.0,12.0,45,0.00,,OVC044,0.81,VWS V14.01,2013-04-13 02:00:00,
2013-04-12 22:03:00,65.4,44.7,29.69,West,280,3.0,7.0,47,0.00,,CLR,0.81,VWS V14.01,2013-04-13 02:03:00,
2013-04-12 22:08:00,65.2,43.9,29.69,West,278,1.0,7.0,46,0.00,,CLR,0.81,VWS V14.01,2013-04-13 02:08:00,
2013-04-12 22:13:00,65.0,43.7,29.69,West,281,3.0,9.0,46,0.00,,CLR,0.81,VWS V14.01,2013-04-13 02:13:00,
2013-04-12 22:18:00,64.7,44.0,29.69,WSW,242,1.0,9.0,47,0.00,,CLR,0.81,VWS V14.01,2013-04-13 02:18:00,
2013-04-12 22:23:00,64.5,43.8,29.70,WSW,238,4.0,10.0,47,0.00,,CLR,0.81,VWS V14.01,2013-04-13 02:23:00,
2013-04-12 22:28:00,64.3,44.2,29.70,WNW,290,2.0,10.0,48,0.00,,CLR,0.81,VWS V14.01,2013-04-13 02:28:00,
2013-04-12 22:30:00,64.2,44.1,29.69,NW,305,2.0,10.0,48,0.00,,OVC044,0.81,VWS V14.01,2013-04-13 02:30:00,
2013-04-12 22:33:00,64.0,43.9,29.70,West,271,8.0,8.0,48,0.00,,CLR,0.81,VWS V14.01,2013-04-13 02:33:00,
2013-04-12 22:38:00,63.9,43.8,29.70,WNW,292,2.0,10.0,48,0.00,,CLR,0.81,VWS V14.01,2013-04-13 02:38:00,
2013-04-12 22:43:00,63.9,43.8,29.70,West,259,7.0,10.0,48,0.00,,CLR,0.81,VWS V14.01,2013-04-13 02:43:00,
2013-04-12 22:48:00,63.7,44.2,29.70,WNW,298,2.0,10.0,49,0.00,,CLR,0.81,VWS V14.01,2013-04-13 02:48:00,
2013-04-12 22:53:00,63.6,43.6,29.70,NW,317,1.0,10.0,48,0.00,,CLR,0.81,VWS V14.01,2013-04-13 02:53:00,
2013-04-12 22:58:00,63.5,44.0,29.71,WNW,282,4.0,10.0,49,0.00,,CLR,0.81,VWS V14.01,2013-04-13 02:58:00,
2013-04-12 23:00:00,63.4,43.9,29.71,WNW,292,4.0,10.0,49,0.00,,OVC044,0.81,VWS V14.01,2013-04-13 03:00:00,
2013-04-12 23:03:00,63.3,43.8,29.71,NW,317,2.0,4.0,49,0.00,,CLR,0.81,VWS V14.01,2013-04-13 03:03:00,
2013-04-12 23:08:00,63.1,43.7,29.71,WNW,301,1.0,4.0,49,0.00,,CLR,0.81,VWS V14.01,2013-04-13 03:08:00,
2013-04-12 23:13:00,62.6,44.2,29.71,WNW,300,2.0,4.0,51,0.00,,CLR,0.81,VWS V14.01,2013-04-13 03:13:00,
2013-04-12 23:18:00,62.3,44.0,29.71,WNW,298,3.0,4.0,51,0.00,,CLR,0.81,VWS V14.01,2013-04-13 03:18:00,
2013-04-12 23:23:00,61.8,44.0,29.71,WNW,288,6.0,7.0,52,0.00,,CLR,0.81,VWS V14.01,2013-04-13 03:23:00,
2013-04-12 23:28:00,61.5,44.2,29.71,West,281,4.0,7.0,53,0.00,,CLR,0.81,VWS V14.01,2013-04-13 03:28:00,
2013-04-12 23:30:00,61.5,44.2,29.72,West,267,4.0,7.0,53,0.00,,OVC044,0.81,VWS V14.01,2013-04-13 03:30:00,
2013-04-12 23:33:00,61.6,44.3,29.72,WNW,294,2.0,8.0,53,0.00,,CLR,0.81,VWS V14.01,2013-04-13 03:33:00,
2013-04-12 23:38:00,61.4,44.1,29.72,West,276,1.0,8.0,53,0.00,,CLR,0.81,VWS V14.01,2013-04-13 03:38:00,
2013-04-12 23:43:00,61.1,44.3,29.72,West,276,0.0,8.0,54,0.00,,CLR,0.81,VWS V14.01,2013-04-13 03:43:00,
2013-04-12 23:48:00,60.7,44.5,29.72,WNW,292,0.0,8.0,55,0.00,,CLR,0.81,VWS V14.01,2013-04-13 03:48:00,
2013-04-12 23:53:00,60.4,44.2,29.72,WNW,286,0.0,8.0,55,0.00,,CLR,0.81,VWS V14.01,2013-04-13 03:53:00,
2013-04-12 23:58:00,60.0,43.8,29.73,West,262,3.0,8.0,55,0.00,,CLR,0.81,VWS V14.01,2013-04-13 03:58:00,